Location: ?????????
(38.4921°N, 22.9787°E)
Time: 03:25:27
(UTC+00:00)

Cosmos 2369 - Pass Details

Date: 08 December 2025
Orbit: 839 x 854 km, 71.0° (Epoch: 15 January)

Event Time Altitude Azimuth Distance (km) Brightness Sun altitude
Exits shadow 04:16:42 16° 319° (NW) 2,075 5.2 -14.5°
Maximum altitude 04:20:52 43° 254° (WSW) 1,172 4.1 -13.8°
Drops below altitude 10° 04:26:09 10° 185° (S) 2,454 6.3 -12.8°
Sets 04:28:41 0° 178° (S) 3,382 7.1 -12.3°
